Radiation Dose measured at exhaust stack monitor of Fukushima Daiichi Nuclear Power Station
Date,Time,Unit 5 6 shared exhaust cylinders,Wind Direction,Wind Velocity(m/s)
2022/10/30,00:00,3.8,north-northwest,5.9
2022/10/30,00:10,3.8,northwest,5.5
2022/10/30,00:20,3.7,northwest,5.2
2022/10/30,00:30,3.6,north-northwest,5.3
2022/10/30,00:40,3.7,northwest,4.3
2022/10/30,00:50,3.7,northwest,5.0
2022/10/30,01:00,3.7,northwest,4.9
2022/10/30,01:10,3.6,northwest,4.9
2022/10/30,01:20,3.8,northwest,6.9
2022/10/30,01:30,3.7,northwest,6.1
2022/10/30,01:40,3.8,northwest,6.1
2022/10/30,01:50,3.8,northwest,5.9
2022/10/30,02:00,3.7,northwest,4.3
2022/10/30,02:10,3.6,northwest,5.2
2022/10/30,02:20,3.6,northwest,5.9
2022/10/30,02:30,3.8,northwest,6.6
2022/10/30,02:40,3.6,northwest,5.6
2022/10/30,02:50,3.6,northwest,5.7
2022/10/30,03:00,3.7,northwest,5.1
2022/10/30,03:10,3.7,northwest,4.0
2022/10/30,03:20,3.7,northwest,3.7
2022/10/30,03:30,3.6,northwest,4.1
2022/10/30,03:40,3.7,northwest,4.6
2022/10/30,03:50,3.7,northwest,5.1
2022/10/30,04:00,3.7,northwest,5.1
2022/10/30,04:10,3.8,northwest,5.4
2022/10/30,04:20,3.7,northwest,5.2
2022/10/30,04:30,3.7,northwest,4.9
2022/10/30,04:40,3.7,northwest,7.0
2022/10/30,04:50,3.7,northwest,7.2
2022/10/30,05:00,3.9,northwest,7.2
2022/10/30,05:10,3.6,north-northwest,6.4
2022/10/30,05:20,3.7,north-northwest,6.5
2022/10/30,05:30,3.7,north-northwest,5.4
2022/10/30,05:40,3.6,north-northwest,5.4
2022/10/30,05:50,3.7,north-northwest,5.5
2022/10/30,06:00,3.6,north,5.6
2022/10/30,06:10,3.8,north-northwest,5.1
2022/10/30,06:20,3.7,north-northwest,4.9
2022/10/30,06:30,3.6,north-northwest,4.8
2022/10/30,06:40,3.9,northwest,5.1
2022/10/30,06:50,3.7,northwest,4.9
2022/10/30,07:00,3.6,northwest,4.8
2022/10/30,07:10,3.7,northwest,5.2
2022/10/30,07:20,3.7,northwest,4.5
2022/10/30,07:30,3.6,northwest,4.6
2022/10/30,07:40,3.8,north-northwest,5.5
2022/10/30,07:50,3.7,north-northwest,4.9
2022/10/30,08:00,3.8,north-northwest,5.7
2022/10/30,08:10,3.9,northwest,5.0
2022/10/30,08:20,3.7,northwest,4.4
2022/10/30,08:30,3.8,north-northwest,4.2
2022/10/30,08:40,3.8,north-northwest,4.0
2022/10/30,08:50,3.6,north,4.1
2022/10/30,09:00,3.7,north,4.1
2022/10/30,09:10,3.7,north,3.7
2022/10/30,09:20,3.7,north-northwest,3.5
2022/10/30,09:30,3.8,north-northwest,4.0
2022/10/30,09:40,3.8,north-northeast,4.0
2022/10/30,09:50,3.7,north-northeast,5.1
2022/10/30,10:00,3.8,north-northeast,4.3
2022/10/30,10:10,3.7,north-northeast,4.6
2022/10/30,10:20,3.6,north-northeast,4.8
2022/10/30,10:30,3.7,north-northeast,4.6
2022/10/30,10:40,3.7,north-northeast,5.1
2022/10/30,10:50,3.8,north-northeast,5.6
2022/10/30,11:00,3.7,north-northeast,5.8
2022/10/30,11:10,3.7,north-northeast,5.1
2022/10/30,11:20,3.9,north-northeast,5.3
2022/10/30,11:30,3.8,north-northeast,5.2
2022/10/30,11:40,3.7,north-northeast,5.1
2022/10/30,11:50,3.6,north-northeast,5.6
2022/10/30,12:00,3.8,north-northeast,5.1
2022/10/30,12:10,3.6,northeast,4.4
2022/10/30,12:20,3.5,north-northeast,3.5
2022/10/30,12:30,3.9,northeast,3.8
2022/10/30,12:40,3.6,northeast,3.5
2022/10/30,12:50,3.6,northeast,3.7
2022/10/30,13:00,3.9,northeast,4.0
2022/10/30,13:10,3.8,northeast,4.2
2022/10/30,13:20,3.6,northeast,3.4
2022/10/30,13:30,3.8,northeast,3.2
2022/10/30,13:40,3.5,northeast,3.0
2022/10/30,13:50,3.8,northeast,3.2
2022/10/30,14:00,3.6,north-northeast,3.1
2022/10/30,14:10,3.6,north-northeast,3.1
2022/10/30,14:20,3.7,north-northeast,3.0
2022/10/30,14:30,3.7,north-northeast,2.6
2022/10/30,14:40,3.7,north-northeast,2.2
2022/10/30,14:50,3.7,north-northeast,1.9
2022/10/30,15:00,3.6,north-northeast,2.6
2022/10/30,15:10,3.8,north-northeast,2.5
2022/10/30,15:20,3.7,north-northeast,2.6
2022/10/30,15:30,3.7,north-northeast,2.6
2022/10/30,15:40,3.8,north,3.1
2022/10/30,15:50,3.8,north,2.8
2022/10/30,16:00,3.9,north,2.2
2022/10/30,16:10,3.7,west-northwest,1.4
2022/10/30,16:20,3.7,northwest,0.9
2022/10/30,16:30,3.7,west,0.9
2022/10/30,16:40,3.6,west-southwest,1.4
2022/10/30,16:50,3.8,southwest,1.2
2022/10/30,17:00,3.7,southwest,0.9
2022/10/30,17:10,3.7,west,1.5
2022/10/30,17:20,3.6,west-northwest,2.8
2022/10/30,17:30,3.6,west-northwest,3.7
2022/10/30,17:40,3.6,west-northwest,3.9
2022/10/30,17:50,3.7,northwest,3.5
2022/10/30,18:00,3.7,west-northwest,4.1
2022/10/30,18:10,3.7,northwest,4.3
2022/10/30,18:20,3.8,northwest,5.0
2022/10/30,18:30,3.8,northwest,5.3
2022/10/30,18:40,3.7,northwest,4.6
2022/10/30,18:50,3.7,west-northwest,4.4
2022/10/30,19:00,3.8,west-northwest,4.4
2022/10/30,19:10,3.6,northwest,5.5
2022/10/30,19:20,3.9,northwest,5.1
2022/10/30,19:30,3.8,northwest,4.1
2022/10/30,19:40,3.6,northwest,5.0
2022/10/30,19:50,3.6,northwest,4.7
2022/10/30,20:00,3.8,northwest,5.0
2022/10/30,20:10,3.6,west-northwest,5.9
2022/10/30,20:20,3.6,west-northwest,6.4
2022/10/30,20:30,3.7,west-northwest,6.8
2022/10/30,20:40,3.7,northwest,6.8
2022/10/30,20:50,3.7,west-northwest,7.4
2022/10/30,21:00,3.8,northwest,6.6
2022/10/30,21:10,3.7,west-northwest,7.7
2022/10/30,21:20,3.6,west-northwest,7.4
2022/10/30,21:30,3.6,northwest,7.9
2022/10/30,21:40,3.7,northwest,8.0
2022/10/30,21:50,3.7,west-northwest,8.3
2022/10/30,22:00,3.7,west-northwest,8.3
2022/10/30,22:10,3.7,northwest,7.0
2022/10/30,22:20,3.8,northwest,4.6
2022/10/30,22:30,3.7,west-northwest,6.9
2022/10/30,22:40,3.6,west-northwest,5.7
2022/10/30,22:50,3.7,west-northwest,6.1
2022/10/30,23:00,3.7,west-northwest,5.7
2022/10/30,23:10,3.6,northwest,5.5
2022/10/30,23:20,3.6,west-northwest,6.3
2022/10/30,23:30,3.7,west-northwest,5.8
2022/10/30,23:40,3.7,west-northwest,6.4
2022/10/30,23:50,3.7,west-northwest,7.7
